EW7665 Weather Reports


Display with metric or nautical units.
time (UTC)temp
F
wind
direction
speed
MPH
gust
MPH
rain 1hr
in
rain 24hr
in
rain mn
in
humidity
%
barometer
mb
20260509160048 75 281 2.0 9.0 0.00 0.01 0.00 46 1009.3
20260509154550 73 217 5.0 5.0 0.00 0.01 0.00 46 1009.4
20260509153053 70 261 6.0 8.0 0.00 0.01 0.00 46 1009.3
20260509151556 70 248 5.0 7.0 0.00 0.01 0.00 53 1009.4
20260509150050 68 288 4.0 8.0 0.00 0.01 0.00 53 1009.3
20260509144556 66 229 5.0 7.0 0.00 0.01 0.00 53 1009.4
20260509143057 66 227 2.0 8.0 0.00 0.01 0.00 60 1009.4
20260509141558 63 258 6.0 6.0 0.00 0.01 0.00 60 1009.3
20260509140100 61 272 6.0 6.0 0.00 0.01 0.00 60 1009.4
20260509134548 59 275 2.0 4.0 0.00 0.01 0.00 68 1009.4
20260509133050 59 240 4.0 4.0 0.00 0.01 0.00 68 1009.5
20260509131552 57 291 2.0 6.0 0.00 0.01 0.00 68 1009.5
20260509130056 55 275 1.0 4.0 0.00 0.01 0.00 75 1009.2
20260509124545 55 272 1.0 3.0 0.00 0.01 0.00 75 1009.1
20260509123114 54 273 1.0 2.0 0.00 0.01 0.00 75 1009.0
20260509121546 52 280 1.0 1.0 0.00 0.01 0.00 80 1009.0
20260509120049 50 274 2.0 2.0 0.00 0.01 0.00 80 1008.7
20260509114551 50 264 1.0 1.0 0.00 0.01 0.00 80 1008.6
20260509113052 50 0 0.0 0.0 0.00 0.01 0.00 82 1008.5
20260509111549 50 0 0.0 0.0 0.00 0.01 0.00 82 1008.4
20260509110053 51 0 0.0 0.0 0.00 0.01 0.00 82 1008.3
20260509104551 51 279 0.0 1.0 0.00 0.01 0.00 79 1008.3
20260509103059 52 278 1.0 1.0 0.00 0.01 0.00 79 1008.1
20260509101552 52 271 1.0 1.0 0.00 0.01 0.00 79 1008.1
20260509100055 52 273 0.0 1.0 0.00 0.01 0.00 77 1008.3
20260509094552 52 275 0.0 1.0 0.00 0.01 0.00 77 1008.3
20260509093053 53 281 0.0 0.0 0.00 0.01 0.00 75 1008.5
20260509091554 54 275 1.0 1.0 0.00 0.01 0.00 75 1008.4
20260509090055 54 278 1.0 2.0 0.00 0.01 0.00 75 1008.3
20260509084551 54 290 0.0 0.0 0.00 0.01 0.00 79 1008.2
20260509083057 54 0 0.0 1.0 0.00 0.01 0.00 79 1008.1
20260509081547 54 270 0.0 1.0 0.00 0.01 0.00 79 1008.1
20260509080051 53 286 0.0 0.0 0.00 0.01 0.00 87 1008.0
20260509074605 50 0 0.0 0.0 0.00 0.01 0.00 87 1007.9
20260509073050 49 0 0.0 0.0 0.00 0.01 0.00 87 1008.0
20260509071607 49 0 0.0 0.0 0.00 0.01 0.00 88 1008.1
20260509070052 49 0 0.0 0.0 0.00 0.01 0.00 88 1008.1
20260509064552 49 0 0.0 0.0 0.00 0.01 0.00 88 1008.2
20260509063052 49 0 0.0 0.0 0.00 0.01 0.00 87 1008.3
20260509061555 49 0 0.0 0.0 0.00 0.01 0.00 87 1008.4
20260509060049 50 0 0.0 0.0 0.00 0.01 0.00 87 1008.4
20260509054605 50 0 0.0 0.0 0.00 0.01 0.00 86 1008.4
20260509053055 50 0 0.0 0.0 0.00 0.01 0.00 86 1008.5
20260509051550 51 0 0.0 0.0 0.00 0.01 0.00 86 1008.4
20260509050055 51 0 0.0 0.0 0.00 0.01 0.00 84 1008.5
20260509044553 52 0 0.0 0.0 0.00 0.01 0.01 84 1008.5
20260509043100 52 0 0.0 0.0 0.00 0.01 0.01 84 1008.5
20260509041553 53 0 0.0 0.0 0.00 0.01 0.01 84 1008.5
20260509040052 53 0 0.0 0.0 0.00 0.01 0.01 84 1008.5
20260509034552 53 0 0.0 0.0 0.00 0.01 0.01 84 1008.3
20260509033053 54 0 0.0 0.0 0.00 0.01 0.01 80 1008.2
20260509031616 55 0 0.0 0.0 0.00 0.01 0.01 80 1008.2
20260509030059 57 0 0.0 0.0 0.00 0.01 0.01 80 1008.1
20260509024547 57 0 0.0 1.0 0.00 0.01 0.01 72 1007.9
20260509023058 58 0 0.0 0.0 0.00 0.01 0.01 72 1007.7
20260509021552 61 0 0.0 0.0 0.00 0.01 0.01 72 1007.6
20260509020052 61 0 0.0 0.0 0.00 0.01 0.01 62 1007.4
20260509014552 63 0 0.0 0.0 0.00 0.01 0.01 62 1007.3
20260509013048 65 0 0.0 0.0 0.00 0.01 0.01 48 1007.1
20260509011553 75 0 0.0 0.0 0.00 0.01 0.01 48 1007.0
20260509010051 75 0 0.0 0.0 0.00 0.01 0.01 48 1007.1
20260509004553 75 0 0.0 0.0 0.00 0.01 0.01 40 1007.1
20260509003056 75 0 0.0 0.0 0.00 0.01 0.01 40 1007.0
20260509001551 74 0 0.0 1.0 0.00 0.01 0.01 40 1007.0
20260509000104 74 279 0.0 1.0 0.00 0.01 0.01 41 1007.1
20260508234551 74 294 1.0 2.0 0.00 0.01 0.01 41 1007.2
20260508233051 74 274 1.0 3.0 0.00 0.01 0.01 41 1007.1
20260508231554 74 265 1.0 2.0 0.00 0.01 0.01 51 1007.0
20260508224545 72 26 2.0 2.0 0.00 0.01 0.01 51 1007.2
20260508223055 71 266 6.0 6.0 0.00 0.01 0.01 52 1007.2
20260508221558 71 304 1.0 4.0 0.00 0.01 0.01 52 1007.4
20260508220057 70 285 2.0 2.0 0.00 0.01 0.01 52 1007.5
20260508214607 68 211 1.0 2.0 0.00 0.01 0.01 63 1007.5
20260508213102 68 241 1.0 3.0 0.00 0.01 0.01 63 1007.5
20260508211558 66 73 2.0 3.0 0.00 0.01 0.01 63 1007.3
20260508210056 65 90 1.0 2.0 0.00 0.01 0.01 68 1007.4
20260508204604 63 81 3.0 3.0 0.01 0.01 0.01 68 1007.4
20260508203054 63 132 1.0 3.0 0.01 0.01 0.01 68 1007.8
20260508201608 62 99 2.0 3.0 0.01 0.01 0.01 69 1007.6
20260508194552 64 0 0.0 0.0 0.00 0.00 0.00 69 1009.0
20260508193055 64 0 0.0 0.0 0.00 0.00 0.00 65 1009.4
20260508191546 64 0 0.0 0.0 0.00 0.00 0.00 65 1009.2
20260508190052 65 33 0.0 2.0 0.00 0.00 0.00 65 1008.6
20260508184554 65 273 0.0 0.0 0.00 0.00 0.00 58 1008.7
20260508183054 64 283 0.0 0.0 0.00 0.00 0.00 58 1008.8
20260508181609 65 0 0.0 1.0 0.00 0.00 0.00 54 1008.5
20260508180107 64 38 0.0 1.0 0.00 0.00 0.00 54 1008.1
20260508174603 64 42 0.0 1.0 0.00 0.00 0.00 54 1008.5
20260508173054 65 277 0.0 0.0 0.00 0.00 0.00 61 1008.5
20260508171554 64 0 1.0 2.0 0.00 0.00 0.00 61 1008.1
20260508170056 64 90 1.0 2.0 0.00 0.00 0.00 61 1008.5
20260508164554 63 0 0.0 1.0 0.00 0.00 0.00 60 1008.5
20260508163048 62 0 0.0 1.0 0.00 0.00 0.00 60 1008.7
20260508161551 62 0 0.0 0.0 0.00 0.00 0.00 60 1008.3